STARLINK-4407 (53196 NORAD) Tracking and Keplerian Element Data

This shows tracking and keplerian element data for the satellite.

Feedback or suggestion? Click here.




ElementValue
Catalog53196
NameSTARLINK-4407
Epoch Orbit1071
Epoch Day270.11071191
Epoch Year2022
RAAN329.941
Inclination97.6557
Eccentricity0.0001933
Argument of Perigee90.1767
Mean Anonmoly269.9679
Mean Motion15.01264329
Decay Rate1.788E-05
L11 53196U 22084H 22270.11071191 .00001788 00000+0 14371-3 0 9996
L22 53196 97.6557 329.9410 0001933 90.1767 269.9679 15.01264329 10719

Live tracking and technical data element details for STARLINK-4407 (NORAD 53196). STARLINK-4407 can be tracked NOW for your location showing map with azimuth and elevation plus other details from your city location.

Track the satellite on the map from your city or location and see movement details for azimuth, elevation, latitude, longitude, range, height, and movement on the map or in text.







IsCatalogInMostPopularTable: catalog: 53196, numindb: 9
Update: records affected: 1



GetName: 53196 STARLINK-4407

Hit Count: updated at: Thu, 29 Sep 2022 11:17:03 GMT